Change the Weather History Date:

Monday, July 15, 2013

  Actual Average Record
Temperature  
Mean Temperature 78 °F -  
Max Temperature 89 °F 89 °F 105 °F (2011)
Min Temperature 68 °F 68 °F 55 °F (2014)
Cooling Degree Days 13    
Growing Degree Days 28 (Base 50)    
Moisture  
Dew Point 63 °F    
Average Humidity 63    
Maximum Humidity 84    
Minimum Humidity 44    
Precipitation  
Precipitation 0.00 in - - ()
Sea Level Pressure  
Sea Level Pressure 30.10 in    
Wind  
Wind Speed 5 mph (ESE)    
Max Wind Speed 14 mph    
Max Gust Speed 18 mph    
Visibility 10 miles    
Events      
Averages and records for this station are not official NWS values.
T = Trace of Precipitation, MM = Missing Value Source: NWS Daily Summary

Daily Weather History Graph

Daily Weather History Graph

Search for Another Location

Airport or City:

Trip Planner

Search our weather history database for the weather conditions in past years. The results will help you decide how hot, cold, wet, or windy it might be!

Date:

Astronomy

Jul. 15, 2013 Rise Set
Actual Time 6:14 AM CDT 8:41 PM CDT
Civil Twilight 5:44 AM CDT 9:11 PM CDT
Nautical Twilight 5:07 AM CDT 9:48 PM CDT
Astronomical Twilight 4:26 AM CDT 10:29 PM CDT
Moon 1:23 PM CDT (7/15) 12:05 AM CDT (7/15)
Length of Visible Light 15h 27m
Length of Day
14h 27m
Waxing Crescent, 45% of the Moon is Illuminated
Jul 15
Waxing Crescent
Jul 15
First Quarter
Jul 22
Full
Jul 29
Last Quarter
Aug 6
New

Hourly Weather History & Observations

Time (CDT) Temp. Heat Index Dew Point Humidity Pressure Visibility Wind Dir Wind Speed Gust Speed Precip Events Conditions
12:52 AM 71.1 °F - 57.0 °F 61% 30.04 in 10.0 mi ENE 3.5 mph - N/A   Clear
1:52 AM 70.0 °F - 57.9 °F 65% 30.05 in 10.0 mi Calm Calm - N/A   Clear
2:52 AM 69.1 °F - 57.9 °F 68% 30.05 in 10.0 mi Calm Calm - N/A   Clear
3:52 AM 68.0 °F - 59.0 °F 73% 30.06 in 10.0 mi Calm Calm - N/A   Clear
4:52 AM 69.1 °F - 59.0 °F 70% 30.07 in 10.0 mi NE 4.6 mph - N/A   Partly Cloudy
5:52 AM 72.0 °F - 60.1 °F 66% 30.08 in 10.0 mi Variable 3.5 mph - N/A   Mostly Cloudy
6:52 AM 70.0 °F - 64.9 °F 84% 30.10 in 8.0 mi North 4.6 mph - 0.00 in   Scattered Clouds
7:52 AM 71.1 °F - 64.9 °F 81% 30.11 in 10.0 mi NNE 3.5 mph - N/A   Clear
8:52 AM 73.9 °F - 66.0 °F 76% 30.12 in 10.0 mi ENE 3.5 mph - N/A   Scattered Clouds
9:52 AM 79.0 °F - 66.0 °F 64% 30.12 in 10.0 mi East 6.9 mph - N/A   Scattered Clouds
10:52 AM 82.9 °F 85.4 °F 66.9 °F 58% 30.12 in 10.0 mi East 9.2 mph 16.1 mph N/A   Clear
11:52 AM 86.0 °F 87.6 °F 64.9 °F 49% 30.11 in 10.0 mi ESE 12.7 mph 18.4 mph N/A   Mostly Cloudy
12:52 PM 88.0 °F 89.3 °F 64.0 °F 45% 30.10 in 10.0 mi SE 13.8 mph - N/A   Scattered Clouds
1:52 PM 86.0 °F 87.6 °F 64.9 °F 49% 30.10 in 10.0 mi SSE 11.5 mph - N/A   Partly Cloudy
2:52 PM 84.9 °F 87.1 °F 66.0 °F 53% 30.10 in 10.0 mi South 11.5 mph - N/A   Mostly Cloudy
3:52 PM 84.0 °F 85.4 °F 64.0 °F 51% 30.10 in 10.0 mi South 13.8 mph - N/A   Overcast
4:52 PM 87.1 °F 88.3 °F 64.0 °F 46% 30.09 in 10.0 mi SSW 11.5 mph - N/A   Clear
5:52 PM 87.1 °F 87.8 °F 63.0 °F 44% 30.08 in 10.0 mi South 11.5 mph - N/A   Scattered Clouds
6:52 PM 84.0 °F 85.4 °F 64.0 °F 51% 30.09 in 10.0 mi WSW 10.4 mph - N/A   Clear
7:52 PM 81.0 °F 82.5 °F 64.0 °F 56% 30.11 in 10.0 mi SW 6.9 mph - N/A   Partly Cloudy
8:52 PM 78.1 °F - 64.9 °F 64% 30.12 in 10.0 mi WNW 4.6 mph - N/A   Clear
9:52 PM 75.0 °F - 64.9 °F 71% 30.14 in 10.0 mi West 3.5 mph - N/A   Clear
10:52 PM 72.0 °F - 64.9 °F 78% 30.15 in 10.0 mi Calm Calm - N/A   Partly Cloudy
11:52 PM 71.1 °F - 64.9 °F 81% 30.17 in 10.0 mi ENE 6.9 mph - N/A   Partly Cloudy